This is the latest recevied weather packets stored in our database for station/object WB0OCV. If no packets are shown the sender has not sent any weather packets the latest 10 day(s).
| Time | Temp. | Humidity | Pressure | Rain* | Wind** | Luminosity | Snow |
|---|---|---|---|---|---|---|---|
| 1778082855 | 20.56° C | 66% | 1015.1 hPa | 0 mm | - | 741 W/m² | - |
| 1778081737 | 20.56° C | 70% | 1015.3 hPa | 0 mm | - | 475 W/m² | - |
| 1778081434 | 20.56° C | 68% | 1015.4 hPa | 0 mm | - | 627 W/m² | - |
| 1778081131 | 21.11° C | 66% | 1015.5 hPa | 0 mm | - | 672 W/m² | - |
| 1778080829 | 20.56° C | 69% | 1015.3 hPa | 0 mm | - | 789 W/m² | - |
| 1778080526 | 20.56° C | 68% | 1015.4 hPa | 0 mm | - | 698 W/m² | - |
| 1778080224 | 20.56° C | 66% | 1015.5 hPa | 0 mm | - | 569 W/m² | - |
| 1778079920 | 20° C | 69% | 1015.3 hPa | 0 mm | - | 589 W/m² | - |
| 1778079617 | 20° C | 70% | 1015.5 hPa | 0 mm | - | 772 W/m² | - |
| 1778079314 | 19.44° C | 70% | 1015.4 hPa | 0 mm | - | 489 W/m² | - |
| 1778079011 | 20° C | 70% | 1015.4 hPa | 0 mm | - | 616 W/m² | - |
| 1778078708 | 20° C | 69% | 1015.2 hPa | 0 mm | - | 578 W/m² | - |
| 1778078405 | 18.89° C | 72% | 1015.2 hPa | 0 mm | - | 568 W/m² | - |
| 1778078102 | 18.89° C | 73% | 1015 hPa | 0 mm | - | 323 W/m² | - |
| 1778077801 | 18.89° C | 73% | 1015 hPa | 0 mm | - | 320 W/m² | - |
| 1778077498 | 19.44° C | 71% | 1015.1 hPa | 0 mm | - | 299 W/m² | - |
| 1778077196 | 20° C | 69% | 1015.3 hPa | 0 mm | - | 488 W/m² | - |
| 1778076894 | 20.56° C | 68% | 1015.3 hPa | 0 mm | - | 633 W/m² | - |
| 1778076592 | 20.56° C | 68% | 1015.4 hPa | 0 mm | - | 671 W/m² | - |
| 1778076289 | 20° C | 70% | 1015.3 hPa | 0 mm | - | 606 W/m² | - |
| 1778075985 | 20° C | 69% | 1015.4 hPa | 0 mm | - | 630 W/m² | - |
| 1778075683 | 20° C | 69% | 1015.5 hPa | 0 mm | - | 599 W/m² | - |
| 1778075378 | 20° C | 70% | 1015.2 hPa | 0 mm | - | 601 W/m² | - |
| 1778075075 | 20° C | 71% | 1015.3 hPa | 0 mm | - | 585 W/m² | - |
| 1778074772 | 18.89° C | 72% | 1015.2 hPa | 0 mm | - | 568 W/m² | - |
* Rain latest hour (hover to see other rain measurements)
** Current wind speed in m/s (hover to see current wind gust speed)